Home   Weather   Lismore   Past weeks
Flag for Australia

Past Weather in Lismore, New South Wales, Australia — Yesterday and Last 2 Weeks

Now
35 °F

Chilly.


Feels Like: 31 °F
Forecast: 69 / 38 °F
Wind: 5 mph from West

Location: Casino Airport Aws

Current Time: Jul 17, 2019 at 6:43:28 am

Latest Report: Jul 17, 2019 at 6:00 am


Visibility: N/A

Pressure: 30.10 "Hg

Humidity: 88%

Dew Point: 31 °F

Location of LismoreLocation

Past Weather in Lismore — Graph

°F

Lismore Temperature Yesterday

Maximum temperature yesterday: 72 °F (at 3:00 pm)
Minimum temperature yesterday: 39 °F (at 12:00 am)
Average temperature yesterday: 52 °F

High & Low Weather Summary for the Past Weeks

 TemperatureHumidityPressure
High76 °F (Jul 12, 2:00 pm)94% (Jul 2, 5:00 am)30.49 "Hg (Jul 2, 5:00 am)
Low37 °F (Jul 17, 3:00 am)20% (Jul 16, 3:00 pm)29.90 "Hg (Jul 13, 2:00 pm)
Average57 °F71%30.19 "Hg
* Reported Jul 2 5:00 am — Jul 17 5:00 am, Lismore. Weather by CustomWeather, © 2019

Note: Actual official high and low records may vary slightly from our data, if they occured in-between our weather recording intervals... More about our weather records

Advertising

Lismore Weather History for the Previous 24 Hours

Scroll right to see more
 ConditionsComfort  
Time TempWeatherWind HumidityBarometerVisibility
5:00 am
Wed, Jul 17
39 °FChilly.6 mph89%30.09 "HgN/A
3:00 am37 °FChilly.No wind90%30.08 "HgN/A
2:00 am37 °FChilly.5 mph90%30.09 "HgN/A
12:00 am38 °FChilly.2 mph85%30.09 "HgN/A
11:00 pm
Tue, Jul 16
47 °FCool.6 mph78%30.09 "HgN/A
9:00 pm44 °FQuite cool.3 mph82%30.08 "HgN/A
8:00 pm47 °FCool.3 mph77%30.07 "HgN/A
6:00 pm53 °FCool.6 mph58%30.03 "HgN/A
5:00 pm62 °FRefreshingly cool.3 mph40%30.02 "HgN/A
3:00 pm72 °FMild.3 mph20%30.01 "HgN/A
2:00 pm72 °FMild.6 mph23%30.02 "HgN/A
12:00 pm66 °FMild.8 mph32%30.07 "HgN/A
11:00 am62 °FMild.7 mph42%30.10 "HgN/A
9:00 am53 °FCool.8 mph60%30.14 "HgN/A
8:00 am46 °FCool.8 mph70%30.14 "HgN/A
6:00 am41 °FQuite cool.10 mph80%30.11 "HgN/A
Weather by CustomWeather, © 2019

See weather overview

LIVE PARTIAL LUNAR ECLIPSE – Watch the eclipse as it happens